Kerkyra, Greece

9:12 PM EEST on September 20, 2017 (GMT +0300)
Ioannis Kapodistrias

Weather History for LGKR - May, 2017

Change the Weather History Date:

Saturday, May 20, 2017

  Actual Average Record
Temperature  
Mean Temperature 66 °F -  
Max Temperature 75 °F 80 °F 84 °F (1997)
Min Temperature 57 °F 60 °F 51 °F (2004)
Cooling Degree Days 1    
Growing Degree Days 16 (Base 50)    
Moisture  
Dew Point 60 °F    
Average Humidity 79    
Maximum Humidity 94    
Minimum Humidity 59    
Precipitation  
Precipitation 0.00 in 0.03 in - ()
Sea Level Pressure  
Sea Level Pressure 29.99 in    
Wind  
Wind Speed 4 mph ()    
Max Wind Speed 12 mph    
Max Gust Speed -    
Visibility 6.9 miles    
Events      
Averages and records for this station are not official NWS values.
T = Trace of Precipitation, MM = Missing Value Source: Averaged Metar Reports

Daily Weather History Graph

Daily Weather History Graph

Search for Another Location

Airport or City:

Trip Planner

Search our weather history database for the weather conditions in past years. The results will help you decide how hot, cold, wet, or windy it might be!

Date:

Astronomy

May. 20, 2017 Rise Set
Actual Time 6:21 AM EEST 8:52 PM EEST
Civil Twilight 5:50 AM EEST 9:23 PM EEST
Nautical Twilight 5:12 AM EEST 10:01 PM EEST
Astronomical Twilight 4:29 AM EEST 10:44 PM EEST
Moon 3:09 AM EEST 2:40 PM EEST
Length of Visible Light 15h 32m
Length of Day
14h 30m
Last Quarter, 36% of the Moon is Illuminated
May 20
Last Quarter
May 25
New
Jun 1
First Quarter
Jun 9
Full
Jun 17
Last Quarter

Hourly Weather History & Observations

Time (EEST) Temp. Dew Point Humidity Pressure Visibility Wind Dir Wind Speed Gust Speed Precip Events Conditions
12:00 AM 64 °F 60 °F 81% 30.01 in 6 mi Calm Calm - -  
12:20 AM 64.4 °F 59.0 °F 83% 30.01 in - Calm Calm - N/A   Clear
12:50 AM 62.6 °F 59.0 °F 88% 30.01 in - Calm Calm - N/A   Clear
1:20 AM 62.6 °F 59.0 °F 88% 30.01 in - Calm Calm - N/A   Clear
1:50 AM 62.6 °F 59.0 °F 88% 30.01 in - Calm Calm - N/A   Clear
2:20 AM 62.6 °F 59.0 °F 88% 30.01 in - Calm Calm - N/A   Clear
2:50 AM 60.8 °F 57.2 °F 88% 30.01 in - Calm Calm - N/A   Clear
3:00 AM 61 °F 57 °F 82% 30.01 in 6 mi Calm Calm - -  
3:20 AM 59.0 °F 55.4 °F 88% 30.01 in - Calm Calm - N/A   Clear
3:50 AM 59.0 °F 55.4 °F 88% 30.01 in - Calm Calm - N/A   Clear
4:20 AM 59.0 °F 55.4 °F 88% 30.01 in - Calm Calm - N/A   Clear
4:50 AM 57.2 °F 55.4 °F 94% 30.01 in - West 3.5 mph - N/A   Clear
5:20 AM 57.2 °F 55.4 °F 94% 30.01 in - WNW 3.5 mph - N/A   Clear
5:50 AM 57.2 °F 53.6 °F 88% 30.01 in - WNW 3.5 mph - N/A   Clear
6:00 AM 57 °F 54 °F 87% 30.01 in 12 mi WNW 3.5 mph - -   Clear
6:20 AM 57.2 °F 53.6 °F 88% 30.01 in - Calm Calm - N/A   Clear
6:50 AM 57.2 °F 53.6 °F 88% 30.01 in - Calm Calm - N/A   Clear
7:20 AM 57.2 °F 53.6 °F 88% 30.01 in - WNW 2.3 mph - N/A   Clear
7:50 AM 57.2 °F 55.4 °F 94% 29.98 in 6.2 mi Calm Calm - N/A   Partly Cloudy
8:20 AM 60.8 °F 59.0 °F 94% 29.98 in 6.2 mi Calm Calm - N/A   Partly Cloudy
8:50 AM 64.4 °F 57.2 °F 77% 30.01 in 6.2 mi NNE 2.3 mph - N/A   Partly Cloudy
9:20 AM 68.0 °F 59.0 °F 73% 30.01 in 6.2 mi ESE 6.9 mph - N/A   Partly Cloudy
9:50 AM 69.8 °F 60.8 °F 73% 30.01 in 6.2 mi ESE 6.9 mph - N/A   Partly Cloudy
10:20 AM 71.6 °F 60.8 °F 69% 30.01 in 6.2 mi ESE 6.9 mph - N/A   Partly Cloudy
10:50 AM 71.6 °F 62.6 °F 73% 30.01 in 6.2 mi SE 6.9 mph - N/A   Partly Cloudy
11:20 AM 71.6 °F 62.6 °F 73% 30.01 in 6.2 mi SE 9.2 mph - N/A   Partly Cloudy
11:50 AM 71.6 °F 62.6 °F 73% 30.01 in 6.2 mi SE 9.2 mph - N/A   Partly Cloudy
12:00 PM 72 °F 63 °F 65% 30.01 in 12 mi SE 9.2 mph - -   Scattered Clouds
12:20 PM 71.6 °F 62.6 °F 73% 30.01 in 6.2 mi SE 10.4 mph - N/A   Partly Cloudy
12:50 PM 73.4 °F 62.6 °F 69% 30.01 in 6.2 mi SSE 9.2 mph - N/A   Partly Cloudy
1:20 PM 73.4 °F 62.6 °F 69% 30.01 in 6.2 mi SSE 9.2 mph - N/A   Partly Cloudy
1:50 PM 75.2 °F 64.4 °F 69% 30.01 in 6.2 mi SSE 10.4 mph - N/A   Partly Cloudy
2:50 PM 75.2 °F 64.4 °F 69% 29.98 in 6.2 mi SE 11.5 mph - N/A   Partly Cloudy
3:00 PM 76 °F 64 °F 59% 30.00 in 12 mi SE 11.5 mph - -   Scattered Clouds
3:20 PM 75.2 °F 64.4 °F 69% 29.98 in 6.2 mi SSE 11.5 mph - N/A   Partly Cloudy
3:50 PM 75.2 °F 60.8 °F 61% 29.98 in 6.2 mi SSE 11.5 mph - N/A   Partly Cloudy
4:20 PM 75.2 °F 60.8 °F 61% 29.98 in 6.2 mi SSE 11.5 mph - N/A   Partly Cloudy
4:50 PM 75.2 °F 62.6 °F 65% 29.98 in 6.2 mi SSE 11.5 mph - N/A   Partly Cloudy
5:20 PM 75.2 °F 62.6 °F 65% 29.98 in 6.2 mi SSE 9.2 mph - N/A   Partly Cloudy
5:50 PM 73.4 °F 62.6 °F 69% 29.95 in 6.2 mi SE 11.5 mph - N/A   Partly Cloudy
6:00 PM 74 °F 63 °F 61% 29.97 in 12 mi SE 11.5 mph - -   Scattered Clouds
6:20 PM 73.4 °F 62.6 °F 69% 29.95 in 6.2 mi SSE 9.2 mph - N/A   Partly Cloudy
6:50 PM 71.6 °F 62.6 °F 73% 29.95 in 6.2 mi SSE 9.2 mph - N/A   Partly Cloudy
7:20 PM 71.6 °F 62.6 °F 73% 29.95 in 6.2 mi SSE 9.2 mph - N/A   Partly Cloudy
7:50 PM 71.6 °F 62.6 °F 73% 29.95 in 6.2 mi SSE 6.9 mph - N/A   Partly Cloudy
8:20 PM 69.8 °F 62.6 °F 78% 29.95 in 6.2 mi SSE 6.9 mph - N/A   Partly Cloudy
8:50 PM 68.0 °F 64.4 °F 88% 29.92 in 6.2 mi SE 6.9 mph - N/A   Partly Cloudy
9:00 PM 69 °F 64 °F 77% 29.94 in 12 mi SE 6.9 mph - -   Scattered Clouds
9:20 PM 66.2 °F 62.6 °F 88% 29.92 in 6.2 mi SSE 9.2 mph - N/A   Partly Cloudy
9:50 PM 68.0 °F 62.6 °F 83% 29.92 in 6.2 mi South 5.8 mph - N/A   Partly Cloudy
10:20 PM 68.0 °F 62.6 °F 83% 29.92 in 6.2 mi NW 2.3 mph - N/A   Scattered Clouds
10:50 PM 66.2 °F 62.6 °F 88% 29.95 in 6.2 mi NNW 3.5 mph - N/A   Scattered Clouds
11:20 PM 66.2 °F 62.6 °F 88% 29.95 in 6.2 mi Calm Calm - N/A   Scattered Clouds
11:50 PM 66.2 °F 62.6 °F 88% 29.95 in 6.2 mi West 4.6 mph - N/A   Scattered Clouds